This is the latest recevied weather packets stored in our database for station/object K0WOI. If no packets are shown the sender has not sent any weather packets the latest 10 day(s).
| Time | Temp. | Humidity | Pressure | Rain* | Wind** | Luminosity | Snow |
|---|---|---|---|---|---|---|---|
| 1778043280 | 5.56° C | 69% | 1013.4 hPa | 0 mm | - | 0 W/m² | - |
| 1778042977 | 5.56° C | 68% | 1013.1 hPa | 0 mm | - | 0 W/m² | - |
| 1778042675 | 6.11° C | 64% | 1013.2 hPa | 0 mm | - | 0 W/m² | - |
| 1778042372 | 6.11° C | 64% | 1013 hPa | 0 mm | - | 0 W/m² | - |
| 1778042069 | 5.56° C | 66% | 1013.2 hPa | 0 mm | - | 0 W/m² | - |
| 1778041767 | 6.11° C | 66% | 1013.1 hPa | 0 mm | - | 0 W/m² | - |
| 1778041466 | 6.11° C | 62% | 1012.9 hPa | 0 mm | - | 0 W/m² | - |
| 1778041164 | 6.11° C | 61% | 1012.9 hPa | 0 mm | - | 0 W/m² | - |
| 1778040861 | 6.67° C | 64% | 1013.1 hPa | 0 mm | - | 0 W/m² | - |
| 1778040558 | 6.67° C | 63% | 1013.2 hPa | 0 mm | - | 0 W/m² | - |
| 1778040256 | 7.22° C | 63% | 1013.1 hPa | 0 mm | - | 0 W/m² | - |
| 1778039951 | 7.78° C | 54% | 1012.9 hPa | 0 mm | - | 0 W/m² | - |
| 1778039650 | 7.78° C | 48% | 1013 hPa | 0 mm | - | 0 W/m² | - |
| 1778039346 | 8.33° C | 45% | 1012.7 hPa | 0 mm | - | 0 W/m² | - |
| 1778039043 | 8.33° C | 45% | 1012.6 hPa | 0 mm | - | 0 W/m² | - |
| 1778038740 | 8.33° C | 45% | 1012.6 hPa | 0 mm | - | 0 W/m² | - |
| 1778038437 | 8.33° C | 44% | 1012.8 hPa | 0 mm | - | 0 W/m² | - |
| 1778038134 | 8.33° C | 45% | 1012.7 hPa | 0 mm | - | 0 W/m² | - |
| 1778037831 | 8.33° C | 45% | 1012.7 hPa | 0 mm | - | 0 W/m² | - |
| 1778037528 | 8.89° C | 44% | 1012.3 hPa | 0 mm | - | 0 W/m² | - |
| 1778037225 | 8.89° C | 44% | 1012.9 hPa | 0 mm | - | 0 W/m² | - |
| 1778036923 | 8.89° C | 43% | 1012.4 hPa | 0 mm | - | 0 W/m² | - |
| 1778036621 | 9.44° C | 43% | 1012.7 hPa | 0 mm | - | 0 W/m² | - |
| 1778036317 | 9.44° C | 42% | 1012.2 hPa | 0 mm | - | 0 W/m² | - |
| 1778036013 | 10° C | 41% | 1012.4 hPa | 0 mm | - | 0 W/m² | - |
* Rain latest hour (hover to see other rain measurements)
** Current wind speed in m/s (hover to see current wind gust speed)